This is the latest recevied weather packets stored in our database for station/object KC9Q. If no packets are shown the sender has not sent any weather packets the latest 10 day(s).
| Time | Temp. | Humidity | Pressure | Rain* | Wind** | Luminosity | Snow |
|---|---|---|---|---|---|---|---|
| 1778074527 | 10.56° C | 83% | 1013.6 hPa | 0 mm | - | 234 W/m² | - |
| 1778074224 | 10.56° C | 87% | 1013.8 hPa | 0 mm | - | 242 W/m² | - |
| 1778073921 | 10.56° C | 87% | 1013.5 hPa | 0 mm | - | 388 W/m² | - |
| 1778073618 | 10° C | 86% | 1013.3 hPa | 0 mm | - | 276 W/m² | - |
| 1778073315 | 10° C | 89% | 1013.2 hPa | 0 mm | - | 282 W/m² | - |
| 1778073012 | 10° C | 88% | 1013.1 hPa | 0 mm | - | 190 W/m² | - |
| 1778072709 | 9.44° C | 90% | 1013.1 hPa | 0 mm | - | 170 W/m² | - |
| 1778072406 | 9.44° C | 88% | 1012.9 hPa | 0 mm | - | 201 W/m² | - |
| 1778072104 | 9.44° C | 90% | 1013 hPa | 0 mm | - | 173 W/m² | - |
| 1778071801 | 9.44° C | 91% | 1012.9 hPa | 0 mm | - | 133 W/m² | - |
| 1778071499 | 9.44° C | 92% | 1012.7 hPa | 0 mm | - | 109 W/m² | - |
| 1778071197 | 8.89° C | 92% | 1013 hPa | 0 mm | - | 103 W/m² | - |
| 1778070895 | 8.89° C | 93% | 1012.9 hPa | 0 mm | - | 103 W/m² | - |
| 1778070592 | 8.89° C | 93% | 1013.1 hPa | 0 mm | - | 90 W/m² | - |
| 1778070289 | 8.89° C | 93% | 1013 hPa | 0 mm | - | 84 W/m² | - |
| 1778069987 | 8.89° C | 93% | 1012.8 hPa | 0 mm | - | 86 W/m² | - |
| 1778069684 | 8.89° C | 94% | 1012.9 hPa | 0 mm | - | 81 W/m² | - |
| 1778069380 | 8.89° C | 94% | 1012.8 hPa | 0 mm | - | 68 W/m² | - |
| 1778069078 | 8.89° C | 94% | 1013.1 hPa | 0 mm | - | 40 W/m² | - |
| 1778068775 | 8.89° C | 93% | 1013 hPa | 0 mm | - | 31 W/m² | - |
| 1778068473 | 8.89° C | 93% | 1012.7 hPa | 0 mm | - | 30 W/m² | - |
| 1778068171 | 8.89° C | 94% | 1012.7 hPa | 0 mm | - | 24 W/m² | - |
| 1778067869 | 8.33° C | 94% | 1012.6 hPa | 0 mm | - | 20 W/m² | - |
| 1778067567 | 8.33° C | 94% | 1012.3 hPa | 0 mm | - | 18 W/m² | - |
| 1778067265 | 8.33° C | 95% | 1012.1 hPa | 0 mm | - | 16 W/m² | - |
* Rain latest hour (hover to see other rain measurements)
** Current wind speed in m/s (hover to see current wind gust speed)